Weather History for Erie, PA

Change the Weather History Date:

Monday, April 8, 2013

  Actual Average Record
Temperature  
Mean Temperature 53 °F 44 °F  
Max Temperature 71 °F 53 °F 78 °F (1991)
Min Temperature 34 °F 36 °F 12 °F (1982)
Degree Days  
Heating Degree Days 12 21  
Month to date heating degree days 201 178  
Since 1 July heating degree days 5290 5454  
Cooling Degree Days 0 0  
Month to date cooling degree days 0 0  
Year to date cooling degree days 0 1  
Growing Degree Days 2 (Base 50)    
Moisture  
Dew Point 39 °F    
Average Humidity 65    
Maximum Humidity 92    
Minimum Humidity 38    
Precipitation  
Precipitation 0.01 in 0.12 in 1.14 in (1938)
Month to date precipitation 0.06 0.92  
Year to date precipitation 9.17 9.21  
Snow  
Snow 0.00 in 0.20 in - ()
Month to date snowfall T 1.7  
Since 1 July snowfall 104.5 99.4  
Snow Depth 0.00 in    
Sea Level Pressure  
Sea Level Pressure 29.95 in    
Wind  
Wind Speed 10 mph (South)    
Max Wind Speed 28 mph    
Max Gust Speed 37 mph    
Visibility 9 miles    
Events      
T = Trace of Precipitation, MM = Missing Value Source: NWS Daily Summary

Daily Weather History Graph

Daily Weather History Graph

Search for Another Location

Airport:

Trip Planner

Search our weather history database for the weather conditions in past years. The results will help you decide how hot, cold, wet, or windy it might be!

Date:

Astronomy

Apr. 08, 2013 Rise Set
Actual Time 6:51 AM EDT 7:54 PM EDT
Civil Twilight 6:22 AM EDT 8:23 PM EDT
Nautical Twilight 5:48 AM EDT 8:57 PM EDT
Astronomical Twilight 5:12 AM EDT 9:33 PM EDT
Moon 5:42 AM EDT (4/8) 6:26 PM EDT (4/8)
Length of Visible Light 14h 00m
Length of Day
13h 03m
Waning Crescent, 3% of the Moon is Illuminated
Apr 8
Waning Crescent
Apr 10
New
Apr 18
First Quarter
Apr 25
Full
May 2
Last Quarter

Hourly Weather History & Observations

Time (EDT) Temp. Windchill Dew Point Humidity Pressure Visibility Wind Dir Wind Speed Gust Speed Precip Events Conditions
12:51 AM 39.0 °F - 34.0 °F 82% 30.06 in 9.0 mi Calm Calm - N/A   Clear
1:51 AM 37.9 °F - 34.0 °F 86% 30.08 in 6.0 mi Calm Calm - N/A   Clear
2:51 AM 36.0 °F - 33.1 °F 89% 30.07 in 7.0 mi Calm Calm - N/A   Clear
3:51 AM 35.1 °F - 32.0 °F 89% 30.07 in 5.0 mi Calm Calm - N/A   Clear
4:51 AM 35.1 °F 32.2 °F 30.9 °F 85% 30.06 in 8.0 mi SE 3.5 mph - N/A   Clear
5:51 AM 35.1 °F - 30.9 °F 85% 30.05 in 10.0 mi Calm Calm - N/A   Clear
6:51 AM 34.0 °F - 30.9 °F 89% 30.06 in 9.0 mi Calm Calm - N/A   Clear
7:51 AM 37.0 °F - 33.1 °F 86% 30.07 in 7.0 mi Calm Calm - N/A   Clear
8:51 AM 46.0 °F - 37.0 °F 71% 30.07 in 10.0 mi Calm Calm - N/A   Clear
9:51 AM 52.0 °F - 37.0 °F 57% 30.05 in 10.0 mi SSE 6.9 mph - N/A   Clear
10:51 AM 57.9 °F - 37.0 °F 46% 30.02 in 10.0 mi SSE 10.4 mph - N/A   Clear
11:51 AM 64.9 °F - 39.0 °F 39% 29.99 in 10.0 mi SSW 8.1 mph - N/A   Partly Cloudy
12:51 PM 62.1 °F - 39.9 °F 44% 29.95 in 10.0 mi NNE 8.1 mph - N/A   Scattered Clouds
1:51 PM 57.9 °F - 39.0 °F 49% 29.91 in 10.0 mi ENE 8.1 mph - N/A   Mostly Cloudy
2:51 PM 70.0 °F - 44.1 °F 39% 29.88 in 10.0 mi South 16.1 mph 20.7 mph 0.00 in   Overcast
3:51 PM 68.0 °F - 46.0 °F 45% 29.84 in 10.0 mi South 13.8 mph 18.4 mph 0.00 in   Overcast
4:51 PM 70.0 °F - 46.0 °F 42% 29.81 in 10.0 mi South 11.5 mph - N/A   Overcast
5:51 PM 71.1 °F - 44.1 °F 38% 29.81 in 10.0 mi SW 18.4 mph 32.2 mph N/A   Mostly Cloudy
6:51 PM 70.0 °F - 45.0 °F 41% 29.81 in 10.0 mi SW 21.9 mph 34.5 mph 0.00 in   Overcast
7:51 PM 69.1 °F - 45.0 °F 42% 29.80 in 10.0 mi SSW 20.7 mph 31.1 mph N/A   Mostly Cloudy
8:51 PM 69.1 °F - 46.9 °F 45% 29.81 in 10.0 mi SSW 17.3 mph 25.3 mph N/A   Overcast
9:51 PM 66.9 °F - 48.0 °F 51% 29.82 in 10.0 mi SSW 16.1 mph 24.2 mph 0.01 in   Mostly Cloudy
10:51 PM 64.9 °F - 50.0 °F 58% 29.83 in 10.0 mi SSW 17.3 mph - 0.00 in   Partly Cloudy
11:51 PM 66.0 °F - 50.0 °F 56% 29.86 in 10.0 mi West 23.0 mph 36.8 mph N/A   Scattered Clouds